Simultaneous Nadir Overpasses (SNOs) Predictions

Prediction of SNOs between GOES-16 and METOP-B Satellite Orbit:

Table of predicted SNOs for the next 14.0 days since TLE Epoch: 5/30/2020
Index Date Time (GOES-16) GOES-16 Lat,Lon METOP-B Lat,Lon Distance(km) Time Diff (sec)
1 06/01/2020 14:31:11 0.02, -75.21 -0.04, -74.86 39.60 80
2 06/03/2020 02:50:11 -0.02, -75.19 -0.98, -79.45 485.74 80
3 06/04/2020 02:26:52 -0.02, -75.20 0.14, -74.46 83.86 80
4 06/05/2020 14:45:43 0.01, -75.22 0.86, -79.02 432.95 80
5 06/06/2020 14:27:44 0.01, -75.23 -0.27, -74.03 136.88 80
6 06/08/2020 02:46:44 -0.00, -75.23 -0.75, -78.63 387.56 80
7 06/09/2020 02:23:25 0.00, -75.24 0.38, -73.64 182.65 80
8 06/10/2020 14:42:16 -0.00, -75.27 0.63, -78.20 333.03 80
9 06/11/2020 14:24:15 -0.00, -75.29 -0.44, -73.20 237.86 80




NCC Satellite Simultaneous Nadir Overpasses (SNOs) Prediction Service
